[[{"header":{"parameterUnit":"m.s-1","parameterCategory":1,"la1":30.2991,"la2":30.254,"lo1":-89.0895,"lo2":-89.0444,"dy":0.0017,"dx":0.0017,"nx":28,"ny":28,"refTime":"2024-04-12T03:00:00:Z","depth":0,"parameterNumber":2,"parameterNumberName":"U-component_of_WINDS"},"data":[0,0,0,0,0,0,0,0,0,0,0,0,0,0,0,0,0,0,0,0,0,0,0,0,0,0,0,0,0,0,0,0,0,0,0,0,0,0,0,0,0,0,0,0,0,0,0,0,0,0,0,0,0,0,0,0,0,0,3.9007,3.9008,0,3.9175,3.9177,3.9179,3.9153,3.915,3.9147,3.9145,3.9321,3.9328,3.9335,0,0,0,0,0,0,0,0,0,0,0,0,0,3.8667,3.8673,3.9006,3.9009,3.9011,3.9174,3.9177,3.9179,3.9154,3.915,3.9147,3.9143,3.9319,3.9327,3.9336,0,0,0,0,0,0,0,0,0,0,0,0,0,3.8823,3.8675,3.9006,3.9018,3.902,3.9174,3.9177,3.918,3.9154,3.915,3.9146,3.9142,3.9316,3.9326,3.9337,3.9491,0,0,3.9371,3.9376,0,0,0,0,0,0,0,0,3.8814,3.8835,3.9014,3.9017,3.902,3.9138,3.9122,3.9284,3.9155,3.9104,3.9145,3.914,3.9264,3.9279,3.932,3.95,3.9507,3.9372,3.9379,3.9383,3.9387,0,0,0,0,0,0,0,3.8803,3.8828,3.9073,3.9016,3.902,3.9016,3.9033,3.9152,3.9206,3.9108,3.9106,3.9126,3.9265,3.931,3.9324,3.951,3.9372,3.9381,3.9388,3.9393,3.9825,3.9829,0,0,0,0,0,0,3.8788,3.8819,3.9068,3.9078,3.8904,3.9025,3.9045,3.9105,3.9205,3.9216,3.913,3.9125,3.9293,3.9311,3.933,3.9517,3.9383,3.9394,3.94,3.982,3.9826,3.9831,0,0,0,0,0,0,3.8781,3.8811,3.9061,3.8948,3.898,3.9036,3.9104,3.9111,3.9155,3.9221,3.9231,3.9165,3.929,3.9315,3.9451,3.9523,3.9399,3.9409,3.9814,3.9822,3.9828,3.9892,0,0,0,0,0,0,3.8772,3.8808,3.8867,3.895,3.8986,3.9178,3.9108,3.9117,3.9174,3.9168,3.9257,3.9268,3.9289,3.9435,3.9462,3.9536,3.9417,3.9808,3.9817,3.9826,3.9884,3.9901,3.9915,0,0,0,0,0,3.876,3.8879,3.887,3.89,3.906,3.9182,3.9203,3.9224,3.9179,3.9239,3.9282,3.9265,3.9511,3.9449,3.948,3.9558,3.9804,3.9815,3.9825,3.9877,3.9898,3.9915,0,0,0,0,0,0,3.8804,3.889,3.8881,3.903,3.9099,3.9178,3.9254,3.9245,3.9329,3.932,3.9344,3.9364,3.9502,3.9544,3.9474,3.9712,3.9651,3.9669,3.968,3.97,3.9715,3.9703,3.9426,0,0,0,0,0,3.8831,3.8923,3.8993,3.9118,3.9153,3.9198,3.9252,3.9262,3.9335,3.9364,3.9416,3.9489,3.9582,3.9644,3.9733,3.989,3.9909,3.9959,3.9974,3.9987,4.0002,4.0088,4.0111,3.9867,3.9867,3.9867,0,0,3.8889,3.8947,3.9003,3.9129,3.9183,3.9279,3.9222,3.9326,3.9397,3.938,3.9512,3.9553,3.9636,3.9783,3.985,3.9822,4.0074,4.0001,4.001,4.0019,4.0102,4.0125,4.0145,3.9874,3.9873,3.9872,0,0,3.9041,3.9094,3.9204,3.926,3.9342,3.9371,3.9398,3.9478,3.9504,3.9637,3.9626,3.9712,3.9873,3.9932,3.9983,4.0158,4.0146,4.0187,4.0268,4.0352,4.0372,4.0389,4.0451,4.0474,4.0202,4.0202,4.0202,0,3.9102,3.9244,3.9262,3.9367,3.9422,3.941,3.9523,3.9576,3.9685,3.9724,3.969,3.9891,3.9946,4.0107,4.0149,4.0191,4.0223,4.0177,4.0367,4.0384,4.0401,4.0461,4.0484,4.0206,4.0206,4.0205,4.0205,0,3.9315,3.9414,3.9493,3.9596,3.9661,3.9769,3.9805,3.9869,3.9873,3.9905,4.0041,4.0106,4.0209,4.0248,4.0254,4.041,4.039,4.0361,4.03,4.0428,4.0485,4.0508,4.0212,4.0211,4.021,4.0208,0,0,3.9501,3.9613,3.9642,3.9688,3.9779,3.9856,3.9964,4.0063,4.0117,4.0193,4.0284,4.042,4.0394,4.0452,4.0465,4.0538,4.0673,4.0501,4.0503,4.0531,4.085,4.0871,4.0897,4.0666,4.067,4.0674,4.0843,0,3.9663,3.9851,3.9871,4.004,4.0132,4.0122,4.0215,4.0282,4.0315,4.0399,4.0436,4.0532,4.0491,4.0526,4.0598,4.0641,4.0738,4.063,4.0752,4.0756,4.0731,4.0927,4.0949,4.1106,4.0866,4.0869,4.0872,0,3.9876,3.9956,4.0134,4.0212,4.0251,4.0335,4.0427,4.0507,4.0582,4.0602,4.0666,4.0669,4.0781,4.0716,4.0871,4.0797,4.0848,4.0877,4.0884,4.0896,4.0822,4.0944,4.1156,4.118,4.0907,4.0904,4.0902,0,3.9994,4.0146,4.0272,4.0313,4.0407,4.0466,4.0508,4.0579,4.0637,4.0718,4.0757,4.085,4.0902,4.0975,4.1004,4.0953,4.1158,4.1095,4.1178,4.1177,4.1221,4.1218,4.1445,4.1255,4.1254,4.1254,4.1253,0,4.0172,4.0282,4.0327,4.0404,4.0527,4.0549,4.067,4.0709,4.0772,4.0858,4.0856,4.0937,4.0969,4.1056,4.1079,4.1204,4.1228,4.1247,4.1252,4.1248,4.1245,4.1282,4.1271,4.126,4.1259,4.1257,4.1256,0,4.0325,4.0359,4.0496,4.0573,4.0595,4.0682,4.0748,4.0824,4.0856,4.0965,4.0992,4.1043,4.1145,4.118,4.1304,4.132,4.1465,4.1461,4.1439,4.144,4.1521,4.1513,4.1779,4.1815,4.1601,4.1603,4.1605,0,4.0436,4.052,4.0606,4.0662,4.0706,4.0798,4.0857,4.0882,4.0944,4.1035,4.11,4.1201,4.1283,4.1446,4.1495,4.159,4.1588,4.1675,4.1603,4.1595,4.159,4.1584,4.1593,4.1688,4.1691,4.1692,4.1694,0,4.0631,4.0644,4.0728,4.0819,4.0889,4.0962,4.1033,4.108,4.1116,4.1186,4.1289,4.1352,4.1478,4.1578,4.1675,4.172,4.1714,4.1716,4.174,4.1736,4.172,4.173,4.1476,4.171,4.1708,4.1707,4.1706,4.1706,4.0767,4.084,4.0912,4.1006,4.1062,4.1128,4.1202,4.1243,4.1329,4.1433,4.1443,4.1554,4.1628,4.1757,4.1806,4.1894,4.187,4.1906,4.1915,4.1923,4.1929,4.1706,4.1912,4.1912,4.1911,4.1911,4.1911,0,4.0961,4.1006,4.1093,4.1191,4.1266,4.1251,4.1329,4.1393,4.149,4.1558,4.1639,4.1757,4.1855,4.1911,4.2009,4.2068,4.2068,4.2093,4.2089,4.21,4.1945,4.1914,4.2092,4.2092,4.2092,4.2092,4.2092,4.2092,4.1071,4.1195,4.1216,4.1368,4.1413,4.152,4.1566,4.1627,4.1682,4.1814,4.1894,4.193,4.1994,4.2096,4.2185,4.2199,4.2235,4.2263,4.2275,4.2129,4.2111,4.2093,4.2064,4.2271,4.2271,4.2423,4.2424,4.2425]},{"header":{"parameterUnit":"m.s-1","parameterCategory":1,"la1":30.2991,"la2":30.254,"lo1":-89.0895,"lo2":-89.0444,"dy":0.0017,"dx":0.0017,"nx":28,"ny":28,"refTime":"2024-04-12T03:00:00:Z","depth":0,"parameterNumber":3,"parameterNumberName":"V-component_of_WINDS"},"data":[0,0,0,0,0,0,0,0,0,0,0,0,0,0,0,0,0,0,0,0,0,0,0,0,0,0,0,0,0,0,0,0,0,0,0,0,0,0,0,0,0,0,0,0,0,0,0,0,0,0,0,0,0,0,0,0,0,0,-0.6484,-0.6483,0,-0.6414,-0.6413,-0.6412,-0.6399,-0.6399,-0.64,-0.64,-0.6326,-0.6324,-0.6321,0,0,0,0,0,0,0,0,0,0,0,0,0,-0.6603,-0.6601,-0.6484,-0.6483,-0.6482,-0.6414,-0.6413,-0.6412,-0.6399,-0.6399,-0.64,-0.6401,-0.6327,-0.6324,-0.6321,0,0,0,0,0,0,0,0,0,0,0,0,0,-0.6544,-0.66,-0.6484,-0.6467,-0.6465,-0.6414,-0.6413,-0.6412,-0.6398,-0.6399,-0.64,-0.6401,-0.6328,-0.6324,-0.6321,-0.6281,0,0,-0.6309,-0.6308,0,0,0,0,0,0,0,0,-0.6547,-0.654,-0.6471,-0.6468,-0.6466,-0.6416,-0.6428,-0.6368,-0.6398,-0.6424,-0.64,-0.6401,-0.6355,-0.6349,-0.6334,-0.6277,-0.6274,-0.6309,-0.6307,-0.6305,-0.6304,0,0,0,0,0,0,0,-0.6552,-0.6543,-0.6456,-0.647,-0.6467,-0.6462,-0.6455,-0.6416,-0.6386,-0.6422,-0.642,-0.6412,-0.6354,-0.6338,-0.6332,-0.6273,-0.6309,-0.6306,-0.6304,-0.6302,-0.6179,-0.6178,0,0,0,0,0,0,-0.6559,-0.6546,-0.6458,-0.6454,-0.651,-0.646,-0.6451,-0.6431,-0.6386,-0.638,-0.6412,-0.6412,-0.6344,-0.6337,-0.633,-0.6279,-0.6305,-0.6302,-0.63,-0.618,-0.6178,-0.6177,0,0,0,0,0,0,-0.6562,-0.6551,-0.6461,-0.65,-0.6488,-0.6457,-0.6434,-0.6429,-0.6413,-0.6379,-0.6373,-0.6401,-0.6344,-0.6335,-0.6293,-0.6276,-0.63,-0.6297,-0.6181,-0.6179,-0.6178,-0.6178,0,0,0,0,0,0,-0.6565,-0.6552,-0.6537,-0.65,-0.6486,-0.6426,-0.6433,-0.6427,-0.6407,-0.6407,-0.6367,-0.6361,-0.6344,-0.6299,-0.6289,-0.6272,-0.6294,-0.6182,-0.618,-0.6178,-0.6179,-0.6176,-0.6174,0,0,0,0,0,-0.6569,-0.654,-0.6537,-0.6526,-0.6467,-0.6425,-0.6417,-0.6399,-0.6406,-0.639,-0.6368,-0.6363,-0.628,-0.6295,-0.6284,-0.6265,-0.6183,-0.6181,-0.6179,-0.618,-0.6177,-0.6174,0,0,0,0,0,0,-0.6576,-0.6535,-0.6531,-0.6488,-0.6461,-0.6423,-0.6403,-0.6397,-0.6366,-0.6367,-0.6345,-0.6336,-0.6295,-0.6276,-0.6293,-0.6223,-0.6232,-0.6227,-0.6237,-0.6233,-0.6231,-0.6236,-0.6291,0,0,0,0,0,-0.6573,-0.6543,-0.6509,-0.6474,-0.6461,-0.6434,-0.6416,-0.6404,-0.6374,-0.6362,-0.6337,-0.6307,-0.6274,-0.6253,-0.6221,-0.6177,-0.6167,-0.6158,-0.6156,-0.6154,-0.615,-0.6123,-0.6119,-0.617,-0.617,-0.617,0,0,-0.6565,-0.6539,-0.6522,-0.6475,-0.6452,-0.6421,-0.6424,-0.6392,-0.6368,-0.6357,-0.6315,-0.6296,-0.6261,-0.6217,-0.6197,-0.62,-0.6134,-0.6151,-0.615,-0.6146,-0.6121,-0.6116,-0.6112,-0.6168,-0.6168,-0.6169,0,0,-0.6535,-0.6513,-0.6482,-0.6459,-0.6425,-0.6407,-0.64,-0.6363,-0.635,-0.6308,-0.6298,-0.627,-0.6214,-0.619,-0.617,-0.6131,-0.6124,-0.6121,-0.6107,-0.6082,-0.6078,-0.6074,-0.6058,-0.6053,-0.6117,-0.6117,-0.6117,0,-0.653,-0.6484,-0.6466,-0.6434,-0.6413,-0.6402,-0.6369,-0.6348,-0.6304,-0.629,-0.6295,-0.6224,-0.62,-0.615,-0.614,-0.6125,-0.6115,-0.6125,-0.608,-0.6076,-0.6072,-0.6057,-0.6052,-0.6117,-0.6117,-0.6117,-0.6117,0,-0.6478,-0.6446,-0.6425,-0.6384,-0.6361,-0.6328,-0.6305,-0.6283,-0.6274,-0.6256,-0.6213,-0.6184,-0.6145,-0.6133,-0.6123,-0.6081,-0.6084,-0.6085,-0.6093,-0.6067,-0.6053,-0.6047,-0.6116,-0.6117,-0.6117,-0.6117,0,0,-0.645,-0.64,-0.6392,-0.6373,-0.6334,-0.6308,-0.6275,-0.6238,-0.6219,-0.619,-0.616,-0.6113,-0.6114,-0.6091,-0.6079,-0.6057,-0.6025,-0.606,-0.6059,-0.6053,-0.5975,-0.5974,-0.5967,-0.6022,-0.6021,-0.602,-0.5978,0,-0.6414,-0.6355,-0.6338,-0.6288,-0.6257,-0.6246,-0.6217,-0.6189,-0.6172,-0.6142,-0.6122,-0.6089,-0.6093,-0.6079,-0.6057,-0.6034,-0.6009,-0.6037,-0.5992,-0.5991,-0.6,-0.596,-0.5958,-0.592,-0.5972,-0.5971,-0.597,0,-0.6365,-0.6335,-0.6281,-0.6245,-0.6232,-0.6206,-0.617,-0.6143,-0.6111,-0.6099,-0.6074,-0.6063,-0.6027,-0.6038,-0.5987,-0.6006,-0.5987,-0.5973,-0.5971,-0.5965,-0.5978,-0.5951,-0.5908,-0.5901,-0.5961,-0.5962,-0.5963,0,-0.6348,-0.6294,-0.6254,-0.6238,-0.6196,-0.6178,-0.6159,-0.6128,-0.6107,-0.6075,-0.6061,-0.6026,-0.6006,-0.5978,-0.5958,-0.5968,-0.5908,-0.5918,-0.5896,-0.5896,-0.5882,-0.5883,-0.5833,-0.5873,-0.5873,-0.5873,-0.5873,0,-0.6309,-0.6276,-0.6246,-0.6222,-0.6184,-0.6165,-0.6128,-0.6109,-0.6082,-0.6052,-0.6041,-0.6014,-0.599,-0.5959,-0.5943,-0.5902,-0.5893,-0.5882,-0.5878,-0.5882,-0.5883,-0.5868,-0.5869,-0.5871,-0.5872,-0.5872,-0.5872,0,-0.6283,-0.6261,-0.6218,-0.6181,-0.6171,-0.6145,-0.6113,-0.6089,-0.6071,-0.6034,-0.6024,-0.5995,-0.5958,-0.5936,-0.5889,-0.5878,-0.5832,-0.583,-0.5843,-0.5841,-0.582,-0.5821,-0.5757,-0.5747,-0.5795,-0.5794,-0.5794,0,-0.6258,-0.6233,-0.6194,-0.6174,-0.6155,-0.6123,-0.6101,-0.6081,-0.6058,-0.602,-0.6,-0.5962,-0.5931,-0.5872,-0.5847,-0.581,-0.5806,-0.5786,-0.58,-0.5805,-0.5803,-0.5805,-0.5801,-0.5783,-0.5783,-0.5782,-0.5782,0,-0.6217,-0.6208,-0.6177,-0.6142,-0.6116,-0.6088,-0.6059,-0.6043,-0.6018,-0.5993,-0.5956,-0.5931,-0.5884,-0.5846,-0.5808,-0.5787,-0.578,-0.5778,-0.577,-0.5774,-0.5782,-0.5775,-0.5835,-0.5779,-0.5779,-0.578,-0.578,-0.578,-0.619,-0.6167,-0.6135,-0.6101,-0.6077,-0.6051,-0.6025,-0.6004,-0.5973,-0.5932,-0.5923,-0.5883,-0.585,-0.5798,-0.5777,-0.5745,-0.5748,-0.5737,-0.5735,-0.5732,-0.573,-0.5788,-0.5738,-0.5738,-0.5738,-0.5738,-0.5738,0,-0.6147,-0.6126,-0.6095,-0.6055,-0.6028,-0.6025,-0.5993,-0.597,-0.5935,-0.5906,-0.5875,-0.5831,-0.5795,-0.5766,-0.5728,-0.5708,-0.5703,-0.5699,-0.5699,-0.5694,-0.5731,-0.574,-0.5703,-0.5703,-0.5703,-0.5703,-0.5703,-0.5703,-0.6121,-0.6081,-0.6067,-0.6015,-0.5994,-0.5955,-0.5937,-0.5912,-0.5889,-0.584,-0.581,-0.5792,-0.5762,-0.5722,-0.5688,-0.568,-0.5666,-0.5662,-0.5653,-0.5688,-0.5692,-0.5695,-0.5704,-0.5659,-0.5659,-0.5619,-0.5618,-0.5618]}]]